Weather History for PARC - October, 2011

Change the Weather History Date:

Saturday, October 8, 2011

  Actual Average Record
Temperature  
Mean Temperature 26 °F -  
Max Temperature 30 °F 30 °F 42 °F (1989)
Min Temperature 23 °F 15 °F -16 °F (2008)
Degree Days  
Heating Degree Days 38    
Moisture  
Dew Point 19 °F    
Average Humidity 74    
Maximum Humidity 80    
Minimum Humidity 69    
Precipitation  
Precipitation 0.00 in - - ()
Sea Level Pressure  
Sea Level Pressure 29.77 in    
Wind  
Wind Speed 1 mph (NNE)    
Max Wind Speed 5 mph    
Max Gust Speed -    
Visibility 10 miles    
Events      
Averages and records for this station are not official NWS values.
T = Trace of Precipitation, MM = Missing Value Source: NWS Daily Summary

Daily Weather History Graph

Daily Weather History Graph

Search for Another Location

Airport or City:

Trip Planner

Search our weather history database for the weather conditions in past years. The results will help you decide how hot, cold, wet, or windy it might be!

Date:

Astronomy

Oct. 08, 2011 Rise Set
Actual Time 8:20 AM AKDT 6:37 PM AKDT
Civil Twilight 7:24 AM AKDT 7:33 PM AKDT
Nautical Twilight 6:19 AM AKDT 8:38 PM AKDT
Astronomical Twilight 5:08 AM AKDT 9:47 PM AKDT
Moon 5:43 PM AKDT (10/8) 4:07 AM AKDT (10/8)
Length of Visible Light 12h 09m
Length of Day
10h 16m
Waxing Gibbous, 91% of the Moon is Illuminated
Oct 8
Waxing Gibbous
Oct 11
Full
Oct 19
Last Quarter
Oct 26
New
Nov 2
First Quarter

Hourly Weather History & Observations

Time (AKDT) Temp. Windchill Dew Point Humidity Pressure Visibility Wind Dir Wind Speed Gust Speed Precip Events Conditions
12:16 AM 26.6 °F 22.6 °F 17.6 °F 69% 29.74 in 10.0 mi NW 3.5 mph - N/A   Mostly Cloudy
12:36 AM 26.6 °F 22.6 °F 17.6 °F 69% 29.75 in 10.0 mi NW 3.5 mph - N/A   Clear
12:56 AM 24.8 °F 19.1 °F 17.6 °F 74% 29.75 in 10.0 mi NW 4.6 mph - N/A   Scattered Clouds
1:16 AM 24.8 °F - 17.6 °F 74% 29.75 in 10.0 mi Calm Calm - N/A   Overcast
1:36 AM 24.8 °F - 17.6 °F 74% 29.75 in 10.0 mi Calm Calm - N/A   Mostly Cloudy
1:56 AM 24.8 °F - 17.6 °F 74% 29.75 in 10.0 mi Calm Calm - N/A   Clear
2:16 AM 24.8 °F - 17.6 °F 74% 29.76 in 10.0 mi Calm Calm - N/A   Partly Cloudy
2:36 AM 23.0 °F - 17.6 °F 80% 29.76 in 10.0 mi Calm Calm - N/A   Partly Cloudy
2:56 AM 23.0 °F - 15.8 °F 74% 29.77 in 10.0 mi Calm Calm - N/A   Mostly Cloudy
3:16 AM 23.0 °F - 15.8 °F 74% 29.77 in 10.0 mi Calm Calm - N/A   Overcast
3:36 AM 23.0 °F - 15.8 °F 74% 29.77 in 10.0 mi Calm Calm - N/A   Overcast
3:56 AM 23.0 °F - 17.6 °F 80% 29.77 in 10.0 mi Calm Calm - N/A   Overcast
4:16 AM 23.0 °F - 17.6 °F 80% 29.77 in 10.0 mi Calm Calm - N/A   Overcast
4:36 AM 24.8 °F - 17.6 °F 74% 29.76 in 10.0 mi Calm Calm - N/A   Overcast
4:56 AM 23.0 °F - 17.6 °F 80% 29.77 in 10.0 mi Calm Calm - N/A   Overcast
5:16 AM 23.0 °F - 17.6 °F 80% 29.77 in 10.0 mi Calm Calm - N/A   Overcast
5:36 AM 23.0 °F - 17.6 °F 80% 29.77 in 10.0 mi Calm Calm - N/A   Overcast
5:56 AM 23.0 °F 18.4 °F 17.6 °F 80% 29.77 in 10.0 mi NE 3.5 mph - N/A   Overcast
6:16 AM 23.0 °F 18.4 °F 17.6 °F 80% 29.77 in 10.0 mi NE 3.5 mph - N/A   Overcast
6:36 AM 23.0 °F 17.0 °F 17.6 °F 80% 29.77 in 10.0 mi North 4.6 mph - N/A   Overcast
6:56 AM 24.8 °F - 17.6 °F 74% 29.77 in 10.0 mi Calm Calm - N/A   Overcast
7:16 AM 24.8 °F - 17.6 °F 74% 29.77 in 10.0 mi Calm Calm - N/A   Overcast
7:36 AM 24.8 °F - 17.6 °F 74% 29.77 in 10.0 mi Calm Calm - N/A   Overcast
7:56 AM 24.8 °F - 17.6 °F 74% 29.77 in 10.0 mi Calm Calm - N/A   Overcast
8:16 AM 24.8 °F - 17.6 °F 74% 29.77 in 10.0 mi Calm Calm - N/A   Overcast
8:36 AM 24.8 °F - 17.6 °F 74% 29.78 in 10.0 mi Calm Calm - N/A   Overcast
8:56 AM 24.8 °F - 17.6 °F 74% 29.78 in 10.0 mi Calm Calm - N/A   Overcast
9:16 AM 24.8 °F - 17.6 °F 74% 29.78 in 10.0 mi Calm Calm - N/A   Overcast
9:36 AM 24.8 °F 20.5 °F 17.6 °F 74% 29.78 in 8.0 mi North 3.5 mph - N/A   Overcast
9:56 AM 24.8 °F - 19.4 °F 80% 29.77 in 10.0 mi Calm Calm - N/A   Overcast
10:16 AM 24.8 °F - 19.4 °F 80% 29.78 in 9.0 mi Calm Calm - N/A   Overcast
10:36 AM 24.8 °F - 19.4 °F 80% 29.78 in 2.5 mi Calm Calm - N/A   Overcast
10:56 AM 26.6 °F - 19.4 °F 74% 29.78 in 4.0 mi Calm Calm - N/A   Overcast
11:16 AM 26.6 °F - 19.4 °F 74% 29.78 in 8.0 mi Calm Calm - N/A   Overcast
11:36 AM 26.6 °F - 19.4 °F 74% 29.78 in 10.0 mi Calm Calm - N/A   Overcast
11:56 AM 26.6 °F 21.2 °F 21.2 °F 80% 29.78 in 10.0 mi NE 4.6 mph - N/A   Overcast
12:16 PM 26.6 °F 22.6 °F 21.2 °F 80% 29.78 in 10.0 mi NE 3.5 mph - N/A   Overcast
12:36 PM 28.4 °F 24.6 °F 21.2 °F 74% 29.78 in 10.0 mi ENE 3.5 mph - N/A   Overcast
12:56 PM 28.4 °F - 21.2 °F 74% 29.79 in 10.0 mi Calm Calm - N/A   Overcast
1:16 PM 28.4 °F - 21.2 °F 74% 29.79 in 10.0 mi Calm Calm - N/A   Overcast
1:36 PM 28.4 °F - 21.2 °F 74% 29.79 in 10.0 mi Calm Calm - N/A   Overcast
1:56 PM 28.4 °F - 21.2 °F 74% 29.79 in 10.0 mi Calm Calm - N/A   Overcast
2:16 PM 28.4 °F - 21.2 °F 74% 29.79 in 10.0 mi Calm Calm - N/A   Overcast
2:36 PM 28.4 °F - 21.2 °F 74% 29.78 in 8.0 mi Calm Calm - N/A   Overcast
2:56 PM 30.2 °F 25.4 °F 21.2 °F 69% 29.77 in 10.0 mi ENE 4.6 mph - N/A   Overcast
3:16 PM 30.2 °F - 21.2 °F 69% 29.78 in 10.0 mi Calm Calm - N/A   Overcast
3:36 PM 30.2 °F - 21.2 °F 69% 29.78 in 10.0 mi Calm Calm - N/A   Overcast
3:56 PM 30.2 °F - 21.2 °F 69% 29.77 in 10.0 mi Calm Calm - N/A   Overcast
4:16 PM 30.2 °F - 21.2 °F 69% 29.77 in 10.0 mi Calm Calm - N/A   Overcast
4:36 PM 30.2 °F - 21.2 °F 69% 29.77 in 10.0 mi Calm Calm - N/A   Overcast
4:56 PM 30.2 °F - 21.2 °F 69% 29.77 in 10.0 mi Calm Calm - N/A   Overcast
5:16 PM 30.2 °F - 21.2 °F 69% 29.77 in 10.0 mi Calm Calm - N/A   Overcast
5:36 PM 30.2 °F - 21.2 °F 69% 29.77 in 10.0 mi Calm Calm - N/A   Overcast
5:56 PM 30.2 °F 25.4 °F 21.2 °F 69% 29.76 in 10.0 mi North 4.6 mph - N/A   Overcast
6:16 PM 30.2 °F 25.4 °F 21.2 °F 69% 29.76 in 10.0 mi East 4.6 mph - N/A   Overcast
6:36 PM 30.2 °F 26.7 °F 21.2 °F 69% 29.76 in 10.0 mi ENE 3.5 mph - N/A   Overcast
6:56 PM 28.4 °F 24.6 °F 21.2 °F 74% 29.76 in 10.0 mi ENE 3.5 mph - N/A   Overcast
7:16 PM 28.4 °F - 21.2 °F 74% 29.76 in 10.0 mi Calm Calm - N/A   Overcast
7:36 PM 28.4 °F - 21.2 °F 74% 29.76 in 10.0 mi Calm Calm - N/A   Overcast
7:56 PM 28.4 °F - 21.2 °F 74% 29.76 in 10.0 mi Calm Calm - N/A   Overcast
8:16 PM 28.4 °F - 19.4 °F 69% 29.75 in 10.0 mi Calm Calm - N/A   Overcast
8:36 PM 28.4 °F - 21.2 °F 74% 29.75 in 10.0 mi Calm Calm - N/A   Overcast
8:56 PM 28.4 °F 23.3 °F 21.2 °F 74% 29.75 in 10.0 mi NE 4.6 mph - N/A   Overcast
9:16 PM 28.4 °F 22.2 °F 21.2 °F 74% 29.75 in 10.0 mi NE 5.8 mph - N/A   Overcast
9:36 PM 28.4 °F 22.2 °F 21.2 °F 74% 29.75 in 10.0 mi ENE 5.8 mph - N/A   Overcast
9:56 PM 28.4 °F 22.2 °F 21.2 °F 74% 29.75 in 10.0 mi ENE 5.8 mph - N/A   Overcast
10:16 PM 28.4 °F 23.3 °F 21.2 °F 74% 29.74 in 10.0 mi East 4.6 mph - N/A   Overcast
10:36 PM 28.4 °F 23.3 °F 21.2 °F 74% 29.74 in 10.0 mi East 4.6 mph - N/A   Overcast
10:56 PM 28.4 °F 24.6 °F 21.2 °F 74% 29.74 in 10.0 mi East 3.5 mph - N/A   Overcast
11:16 PM 28.4 °F - 21.2 °F 74% 29.74 in 10.0 mi Calm Calm - N/A   Overcast
11:36 PM 28.4 °F 24.6 °F 21.2 °F 74% 29.74 in 10.0 mi ENE 3.5 mph - N/A   Overcast
11:56 PM 28.4 °F 23.3 °F 21.2 °F 74% 29.74 in 9.0 mi ENE 4.6 mph - N/A   Overcast